Location: Bushey
(51.6333°N, 0.3667°W)
Time: 22:02:43
(UTC+00:00)

Cosmos 1862 Rocket - Visible Passes

Search period start: 24 June 2021 00:00
Search period end: 04 July 2021 00:00
Orbit: 605 x 633 km, 82.5° (Epoch: 24 June)

Date Brightness Start Highest point End Pass type
(mag) Time Alt. Az. Time Alt. Az. Time Alt. Az.
24 Jun 6.7 02:37:23 10° NNE 02:39:48 14° ENE 02:42:12 10° E visible
25 Jun 6.4 02:53:53 10° NNE 02:57:24 22° ENE 03:00:52 10° ESE visible
28 Jun 6.5 02:08:31 10° NNE 02:11:02 15° ENE 02:13:31 10° E visible
29 Jun 6.2 02:25:03 10° NNE 02:28:37 22° ENE 02:32:09 10° ESE visible
30 Jun 5.3 02:41:57 10° N 02:46:06 35° ENE 02:50:12 10° SE visible
01 Jul 4.3 02:59:02 10° N 03:03:30 59° ENE 03:07:53 10° SSE visible
02 Jul 6.4 01:39:39 10° NNE 01:42:16 15° ENE 01:44:50 10° E visible
03 Jul 6.0 01:56:14 10° NNE 01:59:50 23° ENE 02:03:24 10° ESE visible
